Weather in Klenovskoye

Russia / Sverdlovsk Oblast     56°49′18″N   58°37′13″E
temp.,
°C
wind,
m/s
gust,
m/s
humid.,
%
clouds,
%
prec.,
mm/h
press.,
hPa
HPBL,
m
9 march, tue
tue923:00−9sw5158594 0.7 1000844
02:00−10sw4119499 0.1 1002494
05:00−11ssw2597100 0.1 1002147
08:00−14s1298100 0.0 100220
11:00−8wnw2391100 0.1 1004336
14:00−6w468399 0.0 1007848
17:00−6w368299 0.1 1008989
20:00−12w119657 0.1 101021
10 march, wed
wed1023:00−13sse009878 0.1 101120
02:00−15ene129894 0.0 101020
05:00−15ne239796 0.0 100972
08:00−14ne3896100 0.1 1007243
11:00−11ne51093100 0.6 1005434
14:00−10ne61292100 0.8 1003643
17:00−11ne61393100 2.2 1003786
20:00−13nne61393100 1.1 1004766
11 march, thu
thu1123:00−15nne51294100 1.7 1006651
02:00−17n51194100 0.4 1008538
05:00−19n4995100 0.6 1010400
08:00−25nw239894 0.0 101283
11:00−21wnw359275 0.0 1013316
14:00−18wnw479247 0.1 1013528
17:00−17wnw489174 0.3 1013732
20:00−20w2599100 0.1 1014124
12 march, fri
fri1223:00−19sw2399100 0.6 101687
02:00−21wnw22100100 0.1 101767
05:00−21wnw2598100 0.1 1017158
08:00−19wsw2598100 0.1 1018201
11:00−12wnw4890100 0.2 1018664
14:00−11w5987100 0.1 1019774
17:00−9w51086100 0.2 1020894
20:00−12w41390100 0.0 1021626
13 march, sat
sat1323:00−12w4139398 0.1 1023663
02:00−12w51293100 0.1 1024558
05:00−14w41195100 0.2 1026446
08:00−16wsw41196100 0.1 1028362
11:00−12wsw4791100 0.1 1030410
14:00−9w4784100 0.0 1030514
17:00−9w478599 0.0 1031520
20:00−12wsw389599 0.0 1031239